Location: Stilling
(56.0622°N, 9.9882°E)
Time: 13:07:11
(UTC+00:00)

Cosmos 1605 Rocket - Pass Details

Date: 13 July 2020
Orbit: 944 x 1007 km, 82.9° (Epoch: 07 August)

Event Time Altitude Azimuth Distance (km) Brightness Sun altitude
Exits shadow 23:27:20 15° 165° (SSE) 2,389 5.4 -12.3°
Maximum altitude 23:32:25 54° 93° (E) 1,176 4.4 -12.3°
Drops below altitude 10° 23:38:28 10° 17° (NNE) 2,724 7.7 -12.3°
Sets 23:41:01 0° 14° (NNE) 3,666 8.9 -12.2°
